Trinidad, CO

3:08 AM MDT on June 16, 2019 (GMT -0600)
Stokes

Weather History for KTAD - May, 2019

Change the Weather History Date:

Sunday, May 19, 2019

  Actual Average Record
Temperature  
Mean Temperature 51 °F 60 °F  
Max Temperature 71 °F 76 °F 90 °F (1956)
Min Temperature 31 °F 45 °F 31 °F (1971)
Degree Days  
Heating Degree Days 14 6  
Month to date heating degree days 189 153  
Since 1 July heating degree days 5361 5443  
Cooling Degree Days 0 1  
Month to date cooling degree days 5 8  
Year to date cooling degree days 5 10  
Growing Degree Days 2 (Base 50)    
Moisture  
Dew Point 28 °F    
Average Humidity 49    
Maximum Humidity 78    
Minimum Humidity 20    
Precipitation  
Precipitation 0.00 in 0.05 in 1.77 in (2015)
Month to date precipitation 0.84 0.91  
Sea Level Pressure  
Sea Level Pressure 29.79 in    
Wind  
Wind Speed 15 mph (SSW)    
Max Wind Speed 35 mph    
Max Gust Speed 46 mph    
T = Trace of Precipitation, MM = Missing Value Source: NWS Daily Summary

Daily Weather History Graph

Daily Weather History Graph

Search for Another Location

Airport or City:

Astronomy

May. 19, 2019 Rise Set
Actual Time 5:45 AM MDT 8:02 PM MDT
Civil Twilight 5:16 AM MDT 8:31 PM MDT
Nautical Twilight 4:40 AM MDT 9:08 PM MDT
Astronomical Twilight 4:00 AM MDT 9:47 PM MDT
Moon 9:05 PM MDT (5/19) 6:32 AM MDT (5/19)
Length of Visible Light 15h 15m
Length of Day
14h 16m
Full, 99% of the Moon is Illuminated
May 19
Full
May 26
Last Quarter
Jun 3
New
Jun 10
First Quarter
Jun 17
Full

Hourly Weather History & Observations

Time (MDT) Temp. Windchill Dew Point Humidity Pressure Visibility Wind Dir Wind Speed Gust Speed Precip Events Conditions
12:54 AM 39.0 °F 33.4 °F 28.0 °F 65% 29.82 in - West 8.1 mph - N/A   Clear
1:54 AM 36.0 °F 31.1 °F 28.9 °F 76% 29.84 in - West 5.8 mph - N/A   Clear
2:54 AM 32.0 °F 24.8 °F 27.0 °F 82% 29.87 in - WNW 8.1 mph - N/A   Clear
3:54 AM 34.0 °F 29.8 °F 26.1 °F 73% 29.87 in - NNE 4.6 mph - N/A   Clear
4:54 AM 33.1 °F 26.1 °F 27.0 °F 78% 29.88 in - West 8.1 mph - N/A   Clear
5:54 AM 32.0 °F 25.6 °F 26.1 °F 79% 29.90 in - WNW 6.9 mph - N/A   Clear
6:54 AM 37.0 °F 30.4 °F 28.0 °F 70% 29.89 in - WNW 9.2 mph - N/A   Clear
7:54 AM 42.1 °F 37.7 °F 30.0 °F 62% 29.93 in - WNW 6.9 mph - N/A   Clear
8:54 AM 46.9 °F - 32.0 °F 56% 29.92 in - East 3.5 mph - N/A   Clear
9:54 AM 53.1 °F - 33.1 °F 47% 29.91 in - East 6.9 mph - N/A   Clear
10:54 AM 59.0 °F - 30.9 °F 35% 29.87 in - SE 4.6 mph - N/A   Clear
11:54 AM 64.0 °F - 30.9 °F 29% 29.82 in - South 20.7 mph 33.4 mph N/A   Clear
12:54 PM 66.0 °F - 30.0 °F 26% 29.78 in - South 23.0 mph 33.4 mph N/A   Clear
1:54 PM 66.9 °F - 28.9 °F 24% 29.77 in - SSE 18.4 mph 26.5 mph N/A   Clear
2:54 PM 71.1 °F - 30.0 °F 22% 29.74 in - South 25.3 mph 35.7 mph N/A   Clear
3:54 PM 70.0 °F - 30.0 °F 23% 29.72 in - South 23.0 mph 42.6 mph N/A   Clear
4:54 PM 66.9 °F - 30.0 °F 25% 29.72 in - South 20.7 mph 38.0 mph N/A   Clear
5:54 PM 66.9 °F - 28.0 °F 23% 29.70 in - South 31.1 mph 42.6 mph N/A   Partly Cloudy
6:54 PM 66.0 °F - 25.0 °F 21% 29.69 in - SSE 18.4 mph 35.7 mph N/A   Partly Cloudy
7:54 PM 64.0 °F - 24.1 °F 22% 29.68 in - South 19.6 mph 27.6 mph N/A   Clear
8:54 PM 63.0 °F - 24.1 °F 23% 29.65 in - SSW 19.6 mph 31.1 mph N/A   Clear
9:54 PM 63.0 °F - 21.9 °F 21% 29.64 in - SSW 21.9 mph 34.5 mph N/A   Clear
10:54 PM 62.1 °F - 23.0 °F 22% 29.64 in - SSW 15.0 mph - N/A   Clear
11:54 PM 63.0 °F - 21.0 °F 20% 29.62 in - South 16.1 mph 31.1 mph N/A   Mostly Cloudy